Location: A�t Lahcen
(32.8243°N, 5.4246°W)
Time: 08:58:12
(UTC+00:00)

Cosmos 1758 Rocket - Visible Passes

Search period start: 09 May 2021 00:00
Search period end: 19 May 2021 00:00
Orbit: 603 x 635 km, 82.5° (Epoch: 08 May)

Date Brightness Start Highest point End Pass type
(mag) Time Alt. Az. Time Alt. Az. Time Alt. Az.
11 May 6.5 04:29:31 10° SE 04:32:12 16° E 04:34:56 10° NE visible
12 May 5.6 04:45:25 10° SSE 04:49:17 31° E 04:53:14 10° NNE visible
15 May 6.4 04:00:42 10° SE 04:03:34 17° E 04:06:28 10° NE visible
16 May 5.3 04:16:43 10° SSE 04:20:40 33° E 04:24:41 10° NNE visible
17 May 4.0 04:33:28 10° S 04:37:52 69° E 04:42:19 10° NNE visible
18 May 3.7 04:50:48 10° SSW 04:55:09 58° W 04:59:34 10° N visible
